Weather in Enarotali

Indonesia     3°57′58″S   136°18′49″E
temp.,
°C
wind,
m/s
gust,
m/s
humid.,
%
clouds,
%
prec.,
mm/h
press.,
hPa
HPBL,
m
16 june, wed
wed1600:00+15n119798 1.6 101519
03:00+14n1198100 2.3 101525
06:00+14se009779 0.7 101618
09:00+16ssw119350 1.8 1017230
12:00+18s128882 3.6 1015721
15:00+17sse1190100 6.2 1013404
18:00+15sse119668 1.8 101522
21:00+14ene019775 2.4 101712
17 june, thu
thu1700:00+14nne0197100 0.4 101713
03:00+13nne0197100 0.5 101612
06:00+13n1197100 0.1 101715
09:00+18ssw0181100 0.1 1016506
12:00+19s118587 1.7 1014828
15:00+17s119399 4.1 1013474
18:00+15sse1199100 0.9 101537
21:00+14sse119966 1.1 101721
18 june, fri
fri1800:00+13ese1199100 0.1 101626
03:00+13ese0198100 0.1 101513
06:00+14sse119898 0.1 101628
09:00+16wsw019085 0.5 1017348
12:00+18ssw118691 3.1 1014804
15:00+16sse119798 6.8 1013160
18:00+15se119882 2.2 101428
21:00+14sse119780 3.3 101731
19 june, sat
sat1900:00+14se0198100 0.3 101626
03:00+14sse009779 0.6 101515
06:00+13se119752 0.1 101613
09:00+19s017831 0.1 1016619
12:00+18ssw118691 1.8 1013664
15:00+17sse119678 4.2 1012244
18:00+15s119974 2.0 1014122
21:00+15sse119988 2.8 101798
20 june, sun
sun2000:00+15sse119985 0.6 1016167
03:00+15se119980 1.3 101490
06:00+14e019995 0.2 101527
09:00+18wsw018598 0.3 1015541
12:00+19s118690 2.2 1013625
15:00+18s119294 6.3 1011427
18:00+15e019851 2.8 101315
21:00+14e119777 3.6 101611